Home > Weather > San Jose > Past weeks

Flag for USA Past Weather in San Jose, California, USA — Yesterday and Last 2 Weeks

Now
61 °F

Passing clouds.


Feels Like: 61 °F
Forecast: 60 / 77 °F
Wind: 3 mph from North

Location: San Jose International Airport

Current Time: Aug 28, 2016 at 2:03:26 AM

Latest Report: Aug 28, 2016 at 12:53 AM


Visibility: 10 mi

Pressure: 30.04 "Hg

Humidity: 78%

Dew Point: 54 °F

Location of San JoseLocation

Past Weather in San Jose — Graph

°F

San Jose Temperature Yesterday

Maximum temperature yesterday: 77 °F (at 2:53 PM)
Minimum temperature yesterday: 62 °F (at 12:53 AM)
Average temperature yesterday: 67 °F

High & Low Weather Summary for the Past Weeks

 TemperatureHumidityPressure
High87 °F (Aug 13, 3:53 PM)90% (Aug 13, 6:53 AM)30.11 "Hg (Aug 13, 6:53 AM)
Low59 °F (Aug 19, 4:53 AM)26% (Aug 13, 5:53 PM)29.78 "Hg (Aug 17, 5:53 PM)
Average67 °F68%29.93 "Hg
* Reported Aug 13 12:53 AM — Aug 28 12:53 AM, San Jose, Weather by CustomWeather, © 2016

Note: Actual official high and low records may vary slightly from our data, if they occured in-between our weather recording intervals... More about our weather records

Advertising

San Jose Weather History for the Previous 24 Hours

Scroll right to see more
 ConditionsComfort  
Time TempWeatherWind HumidityBarometerVisibility
12:53 AM
Sun, Aug 28
61 °FPassing clouds.3 mph78%30.04 "Hg10 mi
11:53 PM
Sat, Aug 27
62 °FPassing clouds.3 mph75%30.03 "Hg10 mi
10:53 PM62 °FPassing clouds.6 mph75%30.03 "Hg10 mi
9:53 PM63 °FPassing clouds.7 mph73%30.02 "Hg10 mi
8:53 PM65 °FPassing clouds.8 mph68%29.99 "Hg10 mi
7:53 PM67 °FPassing clouds.12 mph66%29.97 "Hg10 mi
6:53 PM69 °FPassing clouds.13 mph61%29.96 "Hg10 mi
5:53 PM73 °FPassing clouds.15 mph55%29.96 "Hg10 mi
4:53 PM75 °FPassing clouds.13 mph52%29.95 "Hg10 mi
3:53 PM76 °FSunny.14 mph50%29.96 "Hg10 mi
2:53 PM77 °FSunny.9 mph47%29.97 "Hg10 mi
1:53 PM76 °FSunny.8 mph47%29.98 "Hg10 mi
12:53 PM75 °FPassing clouds.3 mph47%29.99 "Hg10 mi
11:53 AM70 °FPassing clouds.3 mph55%30.01 "Hg10 mi
10:53 AM67 °FPassing clouds.5 mph61%30.01 "Hg10 mi
9:53 AM63 °FBroken clouds.3 mph70%30.01 "Hg10 mi
8:53 AM63 °FMostly cloudy.6 mph70%30.00 "Hg10 mi
7:53 AM62 °FMostly cloudy.7 mph73%29.99 "Hg10 mi
6:53 AM62 °FMostly cloudy.7 mph75%29.98 "Hg10 mi
5:53 AM62 °FPartly cloudy.6 mph75%29.97 "Hg10 mi
4:53 AM62 °FOvercast.3 mph75%29.96 "Hg10 mi
3:53 AM62 °FOvercast.6 mph75%29.96 "Hg10 mi
2:53 AM62 °FOvercast.6 mph75%29.97 "Hg10 mi
Weather by CustomWeather, © 2016

See weather overviewHow to use our weather pages